Location: Fort Wayne
(41.1310°N, 85.1290°W)
Time: 14:19:26
(UTC-05:00)

Gbstr 26 Del rocket - Visible Passes

Search period start: 01 March 2015 00:00
Search period end: 11 March 2015 01:00
Orbit: 493 x 1274 km, 51.8° (Epoch: 01 March)

Date Brightness Start Highest point End Pass type
(mag) Time Alt. Az. Time Alt. Az. Time Alt. Az.
01 Mar 4.6 20:00:52 10° WNW 20:04:32 25° NNW 20:06:47 16° NNE visible
02 Mar 4.8 19:58:05 10° WNW 20:01:33 23° NNW 20:03:56 14° NNE visible
03 Mar 4.9 19:55:17 10° WNW 19:58:36 21° NNW 20:01:03 13° NNE visible
04 Mar 4.9 19:52:29 10° WNW 19:55:40 19° N 19:58:09 12° NNE visible
04 Mar 6.0 21:40:41 10° NW 21:40:48 11° NW 21:40:48 11° NW visible
05 Mar 4.9 19:49:39 10° NW 19:52:44 19° N 19:55:14 11° NE visible
05 Mar 5.9 21:37:32 10° NW 21:37:53 12° NW 21:37:53 12° NW visible
06 Mar 4.9 19:46:46 10° NW 19:49:48 18° N 19:52:18 11° NE visible
06 Mar 5.7 21:34:23 10° NW 21:34:57 13° NW 21:34:57 13° NW visible
07 Mar 4.9 19:43:50 10° NW 19:46:53 19° N 19:49:22 11° NE visible
07 Mar 5.6 21:31:12 10° NW 21:32:01 15° NW 21:32:01 15° NW visible
08 Mar 4.8 20:40:51 10° NW 20:43:57 19° N 20:46:27 12° NE visible
08 Mar 5.4 22:28:02 10° NW 22:29:06 17° NW 22:29:06 17° NW visible
09 Mar 4.7 20:37:48 10° NW 20:41:01 20° N 20:43:32 12° NE visible
09 Mar 5.2 22:24:52 10° NW 22:26:11 19° NW 22:26:11 19° NW visible
10 Mar 4.5 20:34:42 10° NW 20:38:05 22° N 20:40:38 13° ENE visible
10 Mar 5.0 22:21:42 10° NW 22:23:18 22° NW 22:23:18 22° NW visible
